Find Starlink 35012

NORAD ID: 65384 Int'l Des: 2025-191 Owner: SPXS Country: US Constellation: starlink operational
LEOCIRCULARRETROGRADESSO

Live Position

Loading 3D Globe...

About Starlink 35012

Description loading...

Upcoming Passes

Passes for default location (London). Set your location on the main map for personalized predictions.

Altitude History

Loading altitude history...

Two-Line Element Set

1 65384U 25191F 26106.87828904 .00003572 00000-0 25159-3 0 9997
2 65384 97.6040 339.1310 0002863 75.7479 284.4066 15.05654586 36017
Epoch: Apr 16, 2026 • Age: 15 hours

Current Status

Altitude 551.9 km
Velocity 7.59 km/s
Sub-Earth Point 12.74°N, 133.23°E
Launch Date Aug 30, 2025
Age 0.6 years
Type internet

Technical Details

Classification Payload
Mass 575.00 kg
Dry Mass 530.00 kg
Total Mass 575.00 kg
Length 0.30 m
Diameter 4.10 m
Span 29.00 m
Shape Box + pan
Manufacturer SPXS
Bus Type Starlink V2MO
Phase Status In Orbit
Owner/State SPXS/US

Most Searched